TimeEDT,TemperatureF,Dew PointF,Humidity,Sea Level PressureIn,VisibilityMPH,Wind Direction,Wind SpeedMPH,Gust SpeedMPH,PrecipitationIn,Events,Conditions,WindDirDegrees,DateUTC
12:56 AM,52.0,48.0,86,30.04,10.0,NE,4.6,-,N/A,,Overcast,50,2012-10-28 04:56:00
1:56 AM,50.0,46.9,89,30.03,10.0,NE,4.6,-,N/A,,Clear,50,2012-10-28 05:56:00
2:56 AM,51.1,46.9,86,30.02,10.0,NNE,5.8,-,N/A,,Clear,20,2012-10-28 06:56:00
3:56 AM,51.1,46.9,86,30.01,10.0,NNE,4.6,-,N/A,,Clear,30,2012-10-28 07:56:00
4:56 AM,51.1,46.9,86,30.01,10.0,NNE,6.9,-,N/A,,Clear,20,2012-10-28 08:56:00
5:56 AM,50.0,46.9,89,30.01,10.0,NE,6.9,-,N/A,,Clear,40,2012-10-28 09:56:00
6:20 AM,51.8,46.4,82,29.97,10.0,NE,8.1,-,N/A,,Mostly Cloudy,40,2012-10-28 10:20:00
6:56 AM,51.1,46.9,86,30.01,10.0,NNE,6.9,-,N/A,,Overcast,20,2012-10-28 10:56:00
7:34 AM,51.8,46.4,82,29.99,10.0,NNE,5.8,-,N/A,,Overcast,30,2012-10-28 11:34:00
7:56 AM,51.1,46.9,86,30.02,10.0,NNE,8.1,-,N/A,,Overcast,20,2012-10-28 11:56:00
8:23 AM,51.8,48.2,88,29.98,10.0,North,8.1,-,N/A,,Overcast,10,2012-10-28 12:23:00
8:56 AM,53.1,48.0,83,30.03,10.0,NNE,8.1,-,N/A,,Overcast,20,2012-10-28 12:56:00
8:59 AM,53.6,48.2,82,29.99,10.0,NNE,6.9,-,N/A,,Overcast,20,2012-10-28 12:59:00
9:03 AM,53.6,48.2,82,29.99,9.0,NNE,6.9,-,N/A,,Overcast,20,2012-10-28 13:03:00
9:56 AM,54.0,50.0,86,30.03,10.0,NE,12.7,-,0.00,,Overcast,50,2012-10-28 13:56:00
10:56 AM,54.0,50.0,86,30.01,10.0,NE,9.2,-,0.00,,Overcast,50,2012-10-28 14:56:00
11:56 AM,54.0,50.0,86,30.01,7.0,NE,13.8,-,0.00,,Overcast,40,2012-10-28 15:56:00
12:27 PM,53.6,50.0,88,29.96,2.5,NE,8.1,-,0.00,Rain,Light Rain,40,2012-10-28 16:27:00
12:40 PM,53.6,51.8,94,29.95,3.0,NE,12.7,-,0.00,,Overcast,50,2012-10-28 16:40:00
12:56 PM,53.1,51.1,93,29.99,2.0,NE,12.7,-,0.01,,Overcast,40,2012-10-28 16:56:00
1:10 PM,53.6,51.8,94,29.94,3.0,NE,13.8,20.7,N/A,,Overcast,40,2012-10-28 17:10:00
1:54 PM,53.6,51.8,94,29.92,2.0,NE,10.4,-,0.00,,Overcast,40,2012-10-28 17:54:00
1:56 PM,53.1,51.1,93,29.96,2.0,NE,12.7,-,0.00,,Overcast,50,2012-10-28 17:56:00
2:03 PM,53.6,51.8,94,29.91,3.0,ENE,13.8,19.6,0.00,Rain,Light Rain,60,2012-10-28 18:03:00
2:13 PM,53.6,51.8,94,29.90,4.0,NE,15.0,-,0.00,,Overcast,50,2012-10-28 18:13:00
2:24 PM,53.6,51.8,94,29.89,2.0,NE,12.7,20.7,0.00,,Overcast,50,2012-10-28 18:24:00
2:31 PM,53.6,51.8,94,29.89,1.5,NE,16.1,21.9,0.01,Rain,Light Rain,50,2012-10-28 18:31:00
2:56 PM,53.1,51.1,93,29.93,2.0,NE,15.0,24.2,0.01,,Overcast,50,2012-10-28 18:56:00
3:14 PM,53.6,51.8,94,29.89,4.0,ENE,15.0,23.0,N/A,,Overcast,60,2012-10-28 19:14:00
3:30 PM,53.6,51.8,94,29.88,2.0,NNE,13.8,-,0.00,Rain,Light Rain,30,2012-10-28 19:30:00
3:56 PM,52.0,51.1,97,29.92,2.0,NNE,9.2,-,0.01,Rain,Light Rain,30,2012-10-28 19:56:00
4:08 PM,51.8,50.0,94,29.88,1.8,NE,16.1,20.7,0.00,Rain,Light Rain,40,2012-10-28 20:08:00
4:22 PM,51.8,50.0,94,29.87,2.0,NE,15.0,21.9,0.01,Rain,Light Rain,50,2012-10-28 20:22:00
4:40 PM,51.8,50.0,94,29.87,1.8,NE,17.3,20.7,0.01,Rain,Light Rain,50,2012-10-28 20:40:00
4:53 PM,51.8,50.0,94,29.87,1.5,NE,10.4,-,0.02,Rain,Light Rain,40,2012-10-28 20:53:00
4:56 PM,52.0,50.0,93,29.91,1.5,NE,10.4,-,0.02,Rain,Light Rain,40,2012-10-28 20:56:00
5:45 PM,51.8,48.2,88,29.88,2.0,NE,12.7,-,0.01,,Overcast,40,2012-10-28 21:45:00
5:56 PM,51.1,48.9,92,29.92,3.0,NE,16.1,25.3,0.02,Rain,Light Rain,50,2012-10-28 21:56:00
6:20 PM,51.8,48.2,88,29.88,3.0,ENE,15.0,24.2,0.00,Rain,Light Rain,60,2012-10-28 22:20:00
6:56 PM,51.1,48.0,89,29.93,4.0,ENE,13.8,23.0,0.00,,Overcast,60,2012-10-28 22:56:00
7:19 PM,50.0,48.2,94,29.89,1.5,NE,13.8,25.3,0.00,Rain,Light Rain,40,2012-10-28 23:19:00
7:56 PM,50.0,48.0,93,29.93,1.5,NE,15.0,-,0.01,Rain,Light Rain,50,2012-10-28 23:56:00
8:03 PM,50.0,48.2,94,29.89,5.0,NE,13.8,-,0.00,Rain,Light Rain,50,2012-10-29 00:03:00
8:25 PM,50.0,48.2,94,29.87,7.0,ENE,11.5,-,0.00,Rain,Light Rain,60,2012-10-29 00:25:00
8:51 PM,50.0,48.2,94,29.86,6.0,NE,15.0,-,0.00,,Overcast,50,2012-10-29 00:51:00
8:52 PM,50.0,48.2,94,29.86,6.0,NE,13.8,-,0.00,,Overcast,50,2012-10-29 00:52:00
8:56 PM,50.0,48.0,93,29.90,6.0,NE,13.8,-,0.00,,Overcast,50,2012-10-29 00:56:00
9:37 PM,50.0,48.2,94,29.85,2.5,NE,10.4,20.7,0.01,,Overcast,40,2012-10-29 01:37:00
9:43 PM,50.0,48.2,94,29.85,3.0,NE,12.7,19.6,0.01,,Overcast,40,2012-10-29 01:43:00
9:56 PM,50.0,48.0,93,29.88,3.0,NNE,13.8,21.9,0.01,,Overcast,30,2012-10-29 01:56:00
10:56 PM,48.9,46.9,93,29.85,3.0,NNE,13.8,-,N/A,,Overcast,30,2012-10-29 02:56:00
11:56 PM,48.9,48.0,97,29.81,3.0,NNE,11.5,-,0.01,Rain,Light Rain,30,2012-10-29 03:56:00